• In Russia
  • List of Countries
  • For 7 days
  • Water Temperature
  • Satellite Maps
  • Weather Map
  • Weather Widgets
  • user-avatar
    Login

    Hourly Weather Linz

    Today, 30 March, Thursday

    Time Temperature Precipitation Wind Pressure Humidity
    00:00 +9°C° 0 mm 2 mps 740 mmHg 92%
    01:00 +9°C° 0 mm 1 mps 740 mmHg 93%
    02:00 +9°C° 0 mm 1 mps 740 mmHg 93%
    03:00 +9°C° 0 mm 1 mps 740 mmHg 94%
    04:00 +9°C° 0 mm 1 mps 740 mmHg 94%
    05:00 +10°C° 0 mm 1 mps 741 mmHg 93%
    06:00 +10°C° 0 mm 1 mps 741 mmHg 93%
    07:00 +11°C° 0 mm 1 mps 741 mmHg 92%
    08:00 +13°C° 0 mm 1 mps 741 mmHg 87%
    09:00 +14°C° 0 mm 1 mps 741 mmHg 82%
    10:00 +16°C° 0 mm 1 mps 741 mmHg 76%
    11:00 +16°C° 0.1 mm 1 mps 741 mmHg 72%
    12:00 +18°C° 0.1 mm 1 mps 741 mmHg 68%
    13:00 +19°C° 0.1 mm 1 mps 740 mmHg 63%
    14:00 +19°C° 0 mm 1 mps 740 mmHg 64%
    15:00 +19°C° 0 mm 1 mps 740 mmHg 65%
    16:00 +19°C° 0 mm 1 mps 740 mmHg 65%
    17:00 +16°C° 0 mm 1 mps 740 mmHg 73%
    18:00 +14°C° 0 mm 1 mps 739 mmHg 82%
    19:00 +11°C° 0 mm 1 mps 739 mmHg 90%
    20:00 +11°C° 0 mm 1 mps 739 mmHg 90%
    21:00 +11°C° 0 mm 1 mps 740 mmHg 91%
    22:00 +10°C° 0 mm 2 mps 740 mmHg 91%
    23:00 +9°C° 0 mm 2 mps 740 mmHg 91%

    Tomorrow, 31 March, Friday

    Time Temperature Precipitation Wind Pressure Humidity
    00:00 +9°C° 0 mm 2 mps 740 mmHg 91%
    01:00 +9°C° 0 mm 2 mps 740 mmHg 91%
    02:00 +8°C° 0 mm 2 mps 739 mmHg 91%
    03:00 +8°C° 0 mm 2 mps 739 mmHg 91%
    04:00 +9°C° 0 mm 1 mps 738 mmHg 91%
    05:00 +9°C° 0 mm 1 mps 738 mmHg 90%
    06:00 +10°C° 0 mm 1 mps 738 mmHg 89%
    07:00 +11°C° 0 mm 1 mps 738 mmHg 88%
    08:00 +13°C° 0 mm 2 mps 738 mmHg 81%
    09:00 +15°C° 0 mm 2 mps 737 mmHg 74%
    10:00 +17°C° 0 mm 2 mps 737 mmHg 67%
    11:00 +19°C° 0 mm 2 mps 737 mmHg 63%
    12:00 +20°C° 0 mm 2 mps 736 mmHg 59%
    13:00 +21°C° 0 mm 2 mps 736 mmHg 56%
    14:00 +21°C° 0 mm 2 mps 735 mmHg 58%
    15:00 +21°C° 0 mm 2 mps 735 mmHg 59%
    16:00 +21°C° 0 mm 2 mps 734 mmHg 61%
    17:00 +19°C° 0 mm 2 mps 734 mmHg 70%
    18:00 +16°C° 0 mm 2 mps 734 mmHg 78%
    19:00 +14°C° 0 mm 2 mps 733 mmHg 86%
    20:00 +13°C° 0 mm 2 mps 733 mmHg 87%
    21:00 +12°C° 0 mm 2 mps 733 mmHg 88%
    22:00 +12°C° 0 mm 2 mps 733 mmHg 89%
    23:00 +10°C° 0 mm 2 mps 733 mmHg 89%

    Day after tomorrow, 1 April, Saturday

    Time Temperature Precipitation Wind Pressure Humidity
    00:00 +10°C° 0 mm 2 mps 733 mmHg 90%
    01:00 +9°C° 0 mm 2 mps 733 mmHg 90%
    02:00 +10°C° 0 mm 1 mps 732 mmHg 90%
    03:00 +9°C° 0 mm 1 mps 732 mmHg 91%
    04:00 +9°C° 0 mm 1 mps 732 mmHg 91%
    05:00 +10°C° 0 mm 1 mps 732 mmHg 90%
    06:00 +10°C° 0 mm 1 mps 732 mmHg 88%
    07:00 +11°C° 0 mm 1 mps 732 mmHg 87%
    08:00 +13°C° 0 mm 1 mps 732 mmHg 79%
    09:00 +15°C° 0 mm 1 mps 732 mmHg 72%
    10:00 +18°C° 0 mm 1 mps 732 mmHg 64%
    11:00 +19°C° 0 mm 1 mps 732 mmHg 61%
    12:00 +20°C° 0 mm 1 mps 731 mmHg 57%
    13:00 +20°C° 0 mm 2 mps 731 mmHg 54%
    14:00 +20°C° 0 mm 2 mps 731 mmHg 55%
    15:00 +20°C° 0 mm 2 mps 730 mmHg 56%
    16:00 +20°C° 0 mm 2 mps 730 mmHg 57%
    17:00 +18°C° 0 mm 2 mps 730 mmHg 66%
    18:00 +15°C° 0 mm 1 mps 730 mmHg 75%
    19:00 +13°C° 0 mm 1 mps 730 mmHg 84%
    20:00 +12°C° 0 mm 1 mps 731 mmHg 84%
    21:00 +11°C° 0 mm 1 mps 731 mmHg 84%
    22:00 +11°C° 0 mm 1 mps 732 mmHg 84%
    23:00 +11°C° 0 mm 1 mps 732 mmHg 84%

    2 April, Sunday

    Time Temperature Precipitation Wind Pressure Humidity
    00:00 +10°C° 0 mm 1 mps 732 mmHg 84%
    01:00 +10°C° 0 mm 1 mps 732 mmHg 85%
    02:00 +9°C° 0 mm 1 mps 733 mmHg 85%
    03:00 +9°C° 0 mm 1 mps 733 mmHg 86%
    04:00 +8°C° 0 mm 2 mps 733 mmHg 86%
    05:00 +9°C° 0 mm 1 mps 734 mmHg 85%
    06:00 +10°C° 0 mm 1 mps 734 mmHg 84%
    07:00 +11°C° 0 mm 1 mps 735 mmHg 83%
    08:00 +12°C° 0 mm 1 mps 735 mmHg 81%
    09:00 +13°C° 0 mm 1 mps 735 mmHg 80%
    10:00 +15°C° 0 mm 2 mps 736 mmHg 78%
    11:00 +16°C° 0.1 mm 2 mps 736 mmHg 76%
    12:00 +16°C° 0.1 mm 2 mps 735 mmHg 75%
    13:00 +17°C° 0.1 mm 2 mps 735 mmHg 73%
    14:00 +17°C° 0.1 mm 2 mps 735 mmHg 73%
    15:00 +17°C° 0.1 mm 2 mps 735 mmHg 73%
    16:00 +19°C° 0.1 mm 1 mps 735 mmHg 73%
    17:00 +15°C° 0.2 mm 1 mps 735 mmHg 80%
    18:00 +13°C° 0.2 mm 1 mps 735 mmHg 87%
    19:00 +10°C° 0.2 mm 1 mps 735 mmHg 94%
    20:00 +10°C° 0.2 mm 1 mps 736 mmHg 94%
    21:00 +10°C° 0.2 mm 1 mps 736 mmHg 95%
    22:00 +10°C° 0.2 mm 1 mps 737 mmHg 95%
    23:00 +10°C° 0.3 mm 1 mps 737 mmHg 95%

    3 April, Monday

    Time Temperature Precipitation Wind Pressure Humidity
    00:00 +10°C° 0.3 mm 1 mps 737 mmHg 96%
    01:00 +10°C° 0.3 mm 1 mps 738 mmHg 96%
    02:00 +10°C° 0.1 mm 1 mps 738 mmHg 96%
    03:00 +10°C° 0.1 mm 1 mps 738 mmHg 96%
    04:00 +10°C° 0.1 mm 1 mps 738 mmHg 97%
    05:00 +10°C° 0.1 mm 1 mps 738 mmHg 96%
    06:00 +11°C° 0.1 mm 1 mps 739 mmHg 96%
    07:00 +11°C° 0.1 mm 1 mps 739 mmHg 95%
    08:00 +12°C° 0.2 mm 1 mps 739 mmHg 93%
    09:00 +13°C° 0.2 mm 1 mps 739 mmHg 91%
    10:00 +13°C° 0.2 mm 1 mps 740 mmHg 90%
    11:00 +14°C° 0.2 mm 1 mps 739 mmHg 86%
    12:00 +15°C° 0.2 mm 1 mps 739 mmHg 83%
    13:00 +15°C° 0.2 mm 1 mps 739 mmHg 80%
    14:00 +16°C° 0.3 mm 1 mps 739 mmHg 79%
    15:00 +16°C° 0.3 mm 1 mps 739 mmHg 78%
    16:00 +16°C° 0.3 mm 1 mps 739 mmHg 77%
    17:00 +14°C° 0.2 mm 1 mps 739 mmHg 83%
    18:00 +12°C° 0.2 mm 1 mps 739 mmHg 88%
    19:00 +10°C° 0.2 mm 1 mps 739 mmHg 93%
    20:00 +10°C° 0.2 mm 1 mps 739 mmHg 93%
    21:00 +10°C° 0.2 mm 1 mps 740 mmHg 93%
    22:00 +10°C° 0.2 mm 1 mps 740 mmHg 94%
    23:00 +9°C° 0 mm 1 mps 740 mmHg 94%

    4 April, Tuesday

    Time Temperature Precipitation Wind Pressure Humidity
    00:00 +9°C° 0 mm 1 mps 740 mmHg 94%
    01:00 +8°C° 0 mm 1 mps 740 mmHg 94%
    02:00 +8°C° 0 mm 1 mps 740 mmHg 95%
    03:00 +7°C° 0 mm 1 mps 740 mmHg 95%
    04:00 +7°C° 0 mm 1 mps 740 mmHg 95%
    05:00 +8°C° 0 mm 1 mps 740 mmHg 94%
    06:00 +8°C° 0 mm 1 mps 740 mmHg 92%
    07:00 +9°C° 0 mm 1 mps 740 mmHg 90%
    08:00 +11°C° 0 mm 1 mps 740 mmHg 84%
    09:00 +12°C° 0 mm 1 mps 740 mmHg 78%
    10:00 +13°C° 0 mm 1 mps 740 mmHg 72%
    11:00 +14°C° 0.1 mm 2 mps 740 mmHg 68%
    12:00 +14°C° 0.1 mm 2 mps 739 mmHg 64%
    13:00 +15°C° 0.1 mm 2 mps 739 mmHg 60%
    14:00 +15°C° 0 mm 2 mps 739 mmHg 61%
    15:00 +15°C° 0 mm 2 mps 739 mmHg 61%
    16:00 +15°C° 0 mm 2 mps 738 mmHg 62%
    17:00 +13°C° 0 mm 2 mps 738 mmHg 69%
    18:00 +12°C° 0 mm 2 mps 738 mmHg 77%
    19:00 +10°C° 0 mm 1 mps 739 mmHg 84%
    20:00 +9°C° 0 mm 1 mps 739 mmHg 86%
    21:00 +9°C° 0 mm 1 mps 739 mmHg 87%
    22:00 +8°C° 0 mm 1 mps 739 mmHg 88%
    23:00 +8°C° 0 mm 1 mps 739 mmHg 88%
    Show more